{"data":{"norad_id":55340,"epoch":"2026-05-24T12:30:39.710016Z","epoch_age_seconds":123179,"freshness":"FRESH","line1":"1 55340U 23013K   26144.52129294  .00001728  00000+0  72341-4 0  9995","line2":"2 55340  43.0027 234.9197 0001785 271.4059  88.6589 15.27571284183276","mean_motion":15.27571284,"eccentricity":0.0001785,"inclination_deg":43.0027,"raan_deg":234.9197,"arg_perigee_deg":271.4059,"mean_anomaly_deg":88.6589,"bstar":7.2341e-5,"rev_number":18327,"period_min":94.267286579865,"perigee_km":481.85046862651,"apogee_km":484.29992138012,"semimajor_km":6861.2121950033,"source":"CELESTRAK","updated_at":"2026-05-25T13:38:17.761575Z"}}